Tracking 19377 objects as of 10-Dec-2018
HD Live streaming from Space Station
objects crossing your sky now

STARLETTE

Track STARLETTE now!
10-day predictions
STARLETTE is classified as:


NORAD ID: 7646
Int'l Code: 1975-010A
Perigee: 812.0 km
Apogee: 1,113.7 km
Inclination: 49.8 °
Period: 104.2 minutes
Semi major axis: 7333 km
RCS: 0.168 m2 (medium)
Launch date: February 6, 1975
Source: France (FR)
Launch site: FRENCH GUIANA (FRGUI)
aabbcc
Your satellite tracking list
Your tracking list is empty




NASA's NSSDC Master Catalog

Two Line Element Set (TLE):
1  7646U 75010A   18343.92459871 -.00000164 +00000-0 -15863-4 0  9990
2  7646 049.8224 144.1072 0205655 351.0264 008.6978 13.82305483214661
Source of the keplerian elements: AFSPC